Temp
79 81 84 85 79 80 71 73 77 75 76 79 83 79 76 75 72 67 83 84 86 89 87 87 80 80 80 79 79 79 79 79 79 79 79 79 79 80 80 80 80 81 81 81 81 81 81 81 81
82 81 86 82 77 72 71 75 76 77 79 82 82 80 77 71 78 79 81 84 86 86 86 86 79 80 80 79 79 79 79 79 79 79 79 79 79 80 80 80 80 81 81 81 81 81 81 81 81
82 82 85 79 73 71 71 75 77 78 81 81 79 81 77 71 78 80 84 84 86 86 87 84 79 79 80 80 79 79 79 79 79 80 80 80 80 79 79 79 80 81 81 82 81 81 81 81 81
85 86 80 77 71 72 74 77 81 79 81 81 82 73 76 79 77 81 85 86 85 87 88 83 79 79 79 80 79 79 79 79 79 80 79 79 80 79 79 79 79 80 81 81 81 81 80 80 80
83 82 76 70 69 72 76 79 81 79 79 80 83 73 72 78 80 82 84 86 85 86 87 86 79 79 79 79 79 79 79 79 79 79 79 79 79 79 79 79 79 80 80 81 81 80 80 79 79
81 80 73 70 69 72 76 79 79 78 81 81 78 74 71 79 80 79 84 85 86 84 84 84 79 79 78 79 79 78 78 78 79 79 79 79 79 79 79 79 79 79 80 80 80 79 79 78 78
78 77 68 69 69 72 76 81 77 78 80 78 81 71 74 77 80 82 82 81 84 86 84 82 84 80 78 78 78 78 78 78 78 78 78 78 78 78 78 78 79 79 79 79 79 79 78 78 78
78 78 68 69 70 69 76 77 77 79 75 80 80 73 71 76 81 84 84 84 83 83 84 82 81 83 84 84 77 77 77 77 77 77 78 78 78 78 78 77 78 78 78 78 78 78 78 78 77
77 76 70 70 73 73 77 77 76 78 78 75 76 76 79 80 83 84 84 84 84 83 82 81 84 82 84 82 79 77 77 76 77 79 76 80 85 84 84 81 77 78 78 78 78 78 78 77 77
79 75 72 76 77 77 77 78 77 77 75 72 74 78 79 80 81 82 83 83 84 83 83 84 83 82 83 83 78 78 79 79 80 81 80 83 82 82 81 80 77 77 78 78 78 78 78 78 87
74 74 75 76 78 82 78 75 76 77 73 76 75 75 78 80 81 83 83 83 82 83 83 84 80 80 84 84 82 81 81 81 80 78 78 79 81 81 83 83 84 83 81 85 85 85 87 87 88
75 76 78 78 79 79 78 78 76 75 79 82 81 79 79 81 83 84 82 82 83 83 81 82 81 79 79 83 83 82 82 79 80 78 77 77 79 78 78 81 81 81 83 81 82 84 84 84 84
75 76 77 80 79 79 79 76 77 76 78 80 79 78 79 79 79 79 81 82 82 82 81 81 80 78 78 78 80 80 79 81 79 79 78 79 79 76 78 78 80 79 80 80 80 81 81 82 83
77 77 77 78 77 77 77 75 77 75 77 76 76 77 78 79 79 77 77 78 79 80 80 80 80 78 80 78 77 79 79 79 80 80 79 79 78 76 78 78 78 79 79 79 79 79 79 80 82
77 75 76 76 77 75 78 70 73 78 77 74 75 76 76 77 77 77 80 78 80 81 79 78 79 79 77 77 78 79 80 81 80 79 78 78 77 76 75 77 77 78 77 77 77 78 78 74 79
73 73 70 75 76 75 77 68 74 76 75 73 75 75 75 76 77 79 79 79 78 79 77 78 81 80 77 76 77 79 80 80 79 79 79 77 77 76 75 77 77 77 76 77 76 76 76 78 79
69 67 67 70 77 74 73 72 77 77 75 73 74 75 75 76 76 77 78 78 78 77 77 77 77 79 77 75 76 75 75 77 78 78 78 77 78 78 75 76 75 74 75 75 74 74 74 73 75
65 65 66 67 72 73 72 72 72 74 74 73 74 75 75 75 77 79 78 79 78 78 76 75 77 75 74 75 74 75 76 77 77 77 77 75 77 76 74 75 73 73 73 73 73 70 73 72 73
69 67 66 68 72 72 71 72 72 72 73 74 73 73 74 75 80 79 78 78 78 77 75 75 75 75 74 75 75 76 76 77 77 78 75 74 75 73 72 73 72 72 70 70 68 69 68 70 73
68 66 66 68 70 71 69 69 70 71 72 75 74 74 74 75 77 77 77 77 76 77 77 75 74 73 73 74 73 73 73 75 75 75 73 73 72 72 70 69 69 69 69 67 67 66 67 70 71
66 66 64 66 67 68 68 66 66 68 71 73 74 75 75 75 76 77 76 76 77 75 75 75 73 72 71 71 72 72 73 73 73 74 73 72 69 69 67 67 66 66 66 66 66 65 64 65 70
63 69 68 66 65 61 64 59 64 67 67 68 73 73 74 75 76 77 78 77 76 75 74 72 71 70 70 69 70 66 67 66 69 67 68 66 66 65 65 64 64 63 64 63 64 66 65 64 64
66 69 66 64 63 61 61 60 67 63 66 68 67 70 74 77 77 79 80 78 75 73 71 69 68 67 67 66 65 66 64 66 66 66 62 62 63 63 63 62 61 61 62 61 60 59 60 63 63
67 65 62 61 61 53 59 59 63 65 66 66 68 71 74 77 78 78 76 74 72 72 71 69 67 65 64 64 63 61 59 59 59 59 58 60 61 61 60 59 58 58 56 55 55 56 57 58 59
67 63 55 52 51 52 56 55 63 65 67 69 70 72 75 77 78 76 74 72 70 69 69 69 65 64 63 62 61 59 57 56 55 55 56 54 53 56 57 57 57 58 57 55 54 53 53 54 54
64 64 51 41 49 54 55 52 63 66 69 70 74 75 75 75 75 72 71 70 69 66 65 66 64 62 61 59 57 57 55 56 55 54 51 51 52 53 54 55 55 54 54 55 54 52 51 53 53
61 59 63 52 48 51 58 58 66 67 67 69 71 71 73 72 70 69 67 67 66 64 63 62 61 60 58 56 55 54 54 51 50 50 50 51 51 53 52 51 51 51 51 52 52 52 52 54 54
66 65 56 55 43 44 53 52 58 63 66 69 69 70 72 68 69 66 66 64 64 63 62 61 59 56 55 54 54 52 50 49 49 50 49 50 50 50 49 49 49 49 50 51 51 51 52 52 54
62 61 57 58 54 46 45 55 65 67 70 69 72 72 70 69 67 65 65 64 63 62 61 58 56 55 54 53 52 50 49 50 50 49 48 48 49 49 49 49 49 49 49 50 50 50 51 51 52
65 64 63 55 50 48 49 53 66 65 67 67 70 70 68 68 65 65 64 63 61 59 57 55 54 53 52 51 49 49 49 48 47 47 48 48 48 49 49 48 48 48 49 49 49 49 51 51 51
MSLP
1011.61 1011.64 1011.44 1010.85 1010.42 1008.96 1008.78 1008.99 1009.32 1009.33 1009.61 1010.19 1010.40 1010.85 1011.47 1012.22 1012.51 1013.45 1013.67 1013.80 1013.66 1013.43 1013.73 1013.89 1014.45 1014.63 1014.38 1014.36 1014.58 1014.51 1014.57 1014.54 1014.62 1014.72 1014.91 1015.19 1015.42 1015.59 1015.85 1015.97 1016.05 1016.15 1016.25 1016.34 1016.38 1016.40 1016.44 1016.48 1016.51
1011.37 1011.49 1010.93 1010.09 1009.25 1008.40 1008.85 1009.01 1008.97 1009.36 1009.95 1010.44 1010.83 1011.36 1011.85 1012.95 1013.33 1013.60 1013.85 1013.96 1013.77 1013.97 1014.15 1014.35 1014.74 1014.69 1014.68 1014.61 1014.78 1014.63 1014.54 1014.62 1014.74 1014.82 1014.95 1015.11 1015.39 1015.53 1015.71 1015.89 1015.99 1016.06 1016.17 1016.26 1016.34 1016.34 1016.38 1016.46 1016.50
1011.03 1010.95 1010.21 1009.61 1009.33 1008.67 1008.87 1009.13 1009.16 1009.82 1010.30 1010.43 1010.94 1011.87 1012.64 1013.87 1014.04 1014.07 1014.14 1014.15 1013.96 1014.16 1014.18 1014.54 1014.71 1014.75 1014.93 1014.91 1015.11 1015.29 1015.26 1015.26 1015.23 1015.24 1015.28 1015.43 1015.51 1015.55 1015.76 1015.93 1016.04 1016.12 1016.15 1016.18 1016.24 1016.28 1016.29 1016.29 1016.40
1010.56 1010.41 1010.69 1009.62 1009.18 1009.48 1009.36 1009.28 1009.47 1009.85 1010.47 1010.77 1011.19 1012.33 1013.83 1014.96 1014.67 1014.60 1014.33 1014.21 1014.24 1014.18 1014.42 1014.95 1014.77 1015.00 1015.03 1014.99 1015.13 1015.49 1015.51 1015.61 1015.60 1015.68 1015.75 1015.82 1016.03 1016.11 1016.09 1016.11 1016.11 1016.06 1016.08 1016.11 1016.19 1016.26 1016.30 1016.32 1016.31
1010.57 1010.07 1009.59 1009.66 1009.82 1009.91 1009.93 1009.83 1009.91 1010.01 1010.49 1010.71 1011.20 1012.61 1013.97 1014.99 1015.14 1014.88 1014.58 1014.45 1014.31 1014.53 1014.69 1014.83 1015.13 1015.11 1014.99 1015.13 1015.33 1015.42 1015.49 1015.62 1015.76 1015.91 1015.92 1015.95 1016.05 1016.13 1016.12 1016.20 1016.25 1016.23 1016.13 1016.07 1016.03 1016.06 1016.11 1016.18 1016.23
1010.05 1010.13 1009.55 1009.37 1009.91 1010.23 1010.18 1010.25 1010.41 1010.54 1010.79 1011.12 1011.79 1012.78 1014.73 1015.48 1015.30 1015.34 1014.95 1014.89 1014.73 1014.96 1014.97 1015.08 1015.23 1015.16 1015.07 1015.21 1015.27 1015.51 1015.61 1015.68 1015.72 1015.81 1015.91 1015.89 1015.90 1015.95 1016.02 1016.07 1016.07 1016.02 1015.96 1015.93 1015.94 1015.88 1015.89 1015.92 1015.95
1009.61 1009.63 1009.93 1009.89 1010.05 1010.15 1010.30 1010.75 1010.95 1011.03 1011.19 1011.71 1012.29 1013.20 1014.85 1015.40 1015.71 1015.55 1015.43 1015.46 1015.22 1015.06 1015.13 1015.23 1015.09 1015.18 1015.35 1015.52 1015.51 1015.61 1015.72 1015.77 1015.89 1015.84 1015.78 1015.80 1015.84 1015.85 1015.88 1015.89 1015.90 1015.86 1015.75 1015.70 1015.68 1015.66 1015.61 1015.61 1015.67
1010.08 1009.83 1010.10 1010.09 1009.83 1010.38 1010.83 1011.09 1011.65 1011.51 1012.16 1012.70 1013.07 1013.31 1014.53 1015.54 1015.75 1015.62 1015.51 1015.44 1015.47 1015.49 1015.52 1015.56 1015.53 1015.39 1015.37 1015.59 1015.89 1015.85 1015.81 1015.90 1015.89 1015.87 1015.81 1015.74 1015.70 1015.69 1015.67 1015.65 1015.52 1015.59 1015.54 1015.41 1015.36 1015.29 1015.23 1015.15 1015.13
1010.27 1009.59 1009.64 1009.83 1009.75 1010.26 1010.97 1011.02 1012.07 1012.43 1012.37 1013.13 1013.68 1013.85 1014.56 1015.34 1015.48 1015.29 1015.19 1015.42 1015.51 1015.77 1015.89 1015.89 1015.57 1015.65 1015.60 1015.72 1015.90 1015.95 1016.04 1015.99 1015.99 1015.94 1016.00 1015.48 1015.29 1015.35 1015.36 1015.29 1015.46 1015.38 1015.27 1015.10 1014.97 1014.91 1014.82 1014.69 1014.58
1009.59 1009.41 1009.67 1010.01 1009.99 1010.14 1011.01 1011.30 1011.86 1012.25 1012.64 1013.53 1014.03 1014.63 1015.11 1015.38 1015.37 1015.01 1014.93 1015.12 1015.37 1015.72 1015.89 1015.86 1015.81 1015.81 1015.80 1015.81 1016.14 1016.15 1016.19 1016.01 1015.95 1015.92 1015.92 1015.51 1015.61 1015.47 1015.43 1015.23 1015.22 1015.06 1014.89 1014.70 1014.58 1014.46 1014.34 1014.25 1013.55
1009.87 1009.53 1009.93 1010.13 1010.18 1010.31 1010.94 1011.64 1012.11 1012.18 1012.59 1012.85 1013.27 1014.33 1015.03 1015.20 1015.18 1014.91 1015.04 1015.29 1015.62 1015.86 1015.98 1016.17 1016.27 1016.24 1015.91 1015.97 1016.15 1016.19 1016.12 1016.12 1016.22 1016.23 1016.05 1015.84 1015.54 1015.45 1015.18 1014.89 1014.62 1014.51 1014.32 1013.89 1013.68 1013.59 1013.27 1013.01 1012.83
1009.81 1010.03 1009.97 1010.22 1010.51 1010.73 1011.08 1011.80 1012.14 1012.53 1012.32 1012.83 1013.69 1014.29 1014.72 1014.85 1014.87 1014.88 1015.13 1015.48 1015.72 1016.01 1016.35 1016.39 1016.41 1016.37 1016.30 1015.98 1015.93 1016.05 1016.07 1016.28 1016.17 1016.24 1016.14 1016.01 1015.71 1015.67 1015.46 1015.04 1014.82 1014.52 1014.15 1013.96 1013.65 1013.27 1013.12 1012.93 1012.70
1009.81 1010.13 1010.26 1010.45 1010.88 1011.03 1011.49 1011.87 1012.25 1012.74 1013.16 1013.64 1014.37 1014.83 1014.90 1015.01 1015.10 1015.31 1015.43 1015.65 1015.84 1015.96 1016.31 1016.49 1016.48 1016.47 1016.51 1016.42 1016.41 1016.39 1016.35 1016.21 1016.32 1016.20 1016.17 1015.99 1015.79 1015.74 1015.47 1015.20 1014.87 1014.60 1014.36 1013.98 1013.71 1013.34 1012.91 1012.49 1012.08
1009.97 1010.16 1010.36 1010.73 1011.08 1011.44 1011.45 1012.20 1012.42 1013.29 1013.73 1014.21 1014.61 1014.91 1015.13 1015.23 1015.48 1015.85 1016.03 1015.92 1015.90 1015.95 1016.10 1016.40 1016.43 1016.54 1016.43 1016.43 1016.46 1016.42 1016.45 1016.45 1016.33 1016.20 1016.11 1015.93 1015.72 1015.61 1015.33 1015.05 1014.78 1014.53 1014.39 1014.08 1013.72 1013.25 1012.97 1012.31 1011.74
1010.18 1010.03 1010.47 1010.83 1011.15 1011.52 1011.91 1012.53 1012.26 1012.97 1013.86 1014.35 1014.76 1015.15 1015.42 1015.64 1015.93 1015.89 1015.84 1015.79 1015.71 1015.81 1016.16 1016.28 1016.40 1016.41 1016.55 1016.57 1016.51 1016.51 1016.45 1016.31 1016.29 1016.25 1016.23 1015.99 1015.73 1015.49 1015.32 1014.93 1014.72 1014.52 1014.45 1014.10 1013.67 1013.17 1012.75 1012.35 1011.64
1010.17 1010.25 1010.06 1010.72 1010.95 1011.51 1011.61 1011.53 1012.28 1013.07 1013.62 1014.23 1014.76 1015.22 1015.51 1015.65 1015.71 1015.78 1015.91 1015.89 1016.00 1016.17 1016.36 1016.39 1016.38 1016.41 1016.54 1016.60 1016.52 1016.34 1016.26 1016.11 1016.05 1015.96 1015.89 1015.85 1015.65 1015.46 1015.27 1014.83 1014.53 1014.33 1014.17 1013.81 1013.49 1013.04 1012.31 1011.60 1011.03
1010.39 1009.87 1010.12 1010.42 1010.87 1011.14 1011.59 1011.02 1011.68 1012.82 1013.49 1013.97 1014.49 1014.78 1015.14 1015.41 1015.79 1015.95 1016.09 1016.15 1016.03 1016.12 1016.15 1016.23 1016.29 1016.27 1016.44 1016.58 1016.63 1016.63 1016.50 1016.20 1015.75 1015.67 1015.60 1015.59 1015.44 1015.23 1015.17 1014.79 1014.52 1014.38 1013.91 1013.57 1013.24 1012.77 1012.26 1011.49 1010.82
1009.79 1009.94 1010.17 1010.19 1010.75 1011.10 1011.18 1011.11 1011.87 1012.53 1013.05 1013.22 1014.01 1014.57 1014.87 1015.08 1015.06 1015.18 1015.70 1015.90 1015.97 1016.06 1016.15 1016.18 1016.23 1016.30 1016.46 1016.60 1016.67 1016.45 1016.23 1015.81 1015.75 1015.54 1015.40 1015.45 1015.19 1015.03 1014.90 1014.40 1014.25 1014.03 1013.61 1013.24 1012.83 1012.57 1011.90 1011.35 1010.66
1010.02 1010.04 1010.09 1010.49 1010.77 1010.81 1010.73 1011.10 1011.61 1012.39 1013.05 1013.28 1013.60 1013.90 1014.19 1014.46 1014.56 1015.03 1015.41 1015.64 1015.72 1015.76 1015.87 1015.96 1016.02 1016.12 1016.46 1016.39 1016.21 1015.96 1015.76 1015.56 1015.41 1015.23 1015.31 1015.23 1015.05 1014.95 1014.73 1014.18 1013.88 1013.49 1013.17 1012.79 1012.62 1012.01 1011.35 1010.75 1010.37
1010.19 1010.18 1010.22 1010.67 1010.89 1010.86 1010.93 1011.21 1011.68 1012.25 1012.11 1012.36 1012.90 1013.39 1013.75 1014.19 1014.38 1014.74 1015.04 1015.27 1015.33 1015.32 1015.40 1015.67 1015.95 1016.32 1016.55 1016.43 1016.32 1016.29 1016.03 1015.65 1015.39 1015.16 1015.09 1014.96 1014.83 1014.71 1014.51 1014.09 1013.62 1013.24 1012.73 1012.26 1011.96 1011.52 1010.77 1010.12 1009.97
1010.30 1010.23 1010.46 1010.57 1011.03 1011.28 1011.17 1011.34 1011.84 1012.38 1012.64 1012.78 1012.93 1013.21 1013.68 1013.84 1013.98 1014.35 1014.73 1014.88 1015.10 1015.17 1015.47 1015.75 1016.19 1016.42 1016.50 1016.56 1016.49 1016.33 1016.11 1015.71 1015.25 1014.90 1014.75 1014.51 1014.45 1014.12 1013.86 1013.50 1013.15 1012.77 1012.36 1011.53 1011.30 1011.02 1010.52 1009.53 1009.03
1010.29 1010.61 1010.79 1011.01 1011.09 1011.20 1011.71 1010.79 1011.35 1011.97 1012.21 1012.41 1012.32 1012.54 1012.80 1013.27 1013.67 1013.97 1014.14 1014.41 1014.90 1015.39 1015.71 1016.10 1016.41 1016.66 1016.88 1016.94 1016.70 1016.81 1016.41 1015.93 1015.59 1015.42 1014.87 1014.65 1014.32 1013.80 1013.41 1012.96 1012.59 1012.24 1011.76 1011.28 1010.92 1010.53 1010.04 1009.53 1008.48
1010.62 1011.02 1011.35 1011.59 1011.62 1011.83 1011.93 1011.65 1010.80 1011.63 1011.32 1011.63 1012.19 1012.29 1012.37 1012.79 1013.27 1013.43 1013.81 1014.51 1015.25 1015.80 1016.22 1016.63 1016.90 1017.21 1017.39 1017.37 1017.46 1017.13 1016.78 1016.37 1015.81 1015.34 1014.84 1014.39 1013.88 1013.48 1013.10 1012.75 1012.25 1011.74 1011.27 1010.81 1010.57 1010.29 1009.81 1009.11 1008.46
1011.07 1011.52 1012.08 1012.41 1012.28 1012.03 1011.92 1011.80 1010.48 1010.86 1011.03 1011.36 1011.87 1012.16 1012.35 1012.65 1013.11 1013.55 1014.37 1015.11 1015.79 1016.31 1016.77 1017.03 1017.23 1017.57 1017.75 1017.73 1017.70 1017.55 1017.27 1016.66 1015.93 1015.31 1014.79 1014.05 1013.63 1013.15 1012.76 1012.38 1011.98 1011.44 1010.92 1010.57 1010.28 1009.94 1009.41 1008.87 1008.40
1011.08 1011.43 1011.96 1012.38 1012.42 1012.21 1012.84 1012.35 1010.74 1011.19 1011.45 1011.57 1011.79 1012.13 1012.40 1012.72 1013.20 1013.96 1014.71 1015.51 1016.26 1016.83 1017.09 1017.29 1017.73 1017.89 1018.07 1018.08 1017.81 1017.63 1017.38 1016.92 1016.12 1015.51 1014.84 1014.43 1013.87 1013.06 1012.41 1012.04 1011.38 1010.83 1010.37 1010.07 1009.72 1009.40 1009.09 1008.53 1008.17
1011.03 1011.39 1011.93 1012.37 1012.70 1012.74 1013.19 1012.04 1011.17 1011.58 1011.68 1011.77 1011.89 1012.13 1012.46 1012.98 1013.79 1014.68 1015.45 1016.17 1016.82 1017.34 1017.73 1018.01 1018.22 1018.23 1018.30 1018.17 1018.00 1017.87 1017.65 1017.04 1016.39 1015.78 1015.43 1014.62 1013.85 1013.12 1012.38 1011.65 1011.08 1010.47 1009.98 1009.51 1009.11 1008.80 1008.37 1007.81 1007.51
1011.46 1011.83 1012.33 1012.85 1013.99 1013.39 1012.51 1012.08 1011.37 1011.41 1011.48 1011.66 1011.95 1012.27 1012.63 1013.45 1014.42 1015.23 1016.18 1016.83 1017.39 1017.91 1018.40 1018.67 1018.75 1018.68 1018.61 1018.55 1018.31 1017.97 1017.67 1017.20 1016.52 1015.85 1015.17 1014.37 1013.60 1012.67 1011.85 1011.21 1010.51 1009.80 1009.18 1008.71 1008.26 1007.78 1007.38 1006.90 1006.63
1010.91 1011.77 1012.42 1012.79 1013.23 1012.92 1012.35 1012.05 1011.07 1011.15 1011.09 1011.42 1011.85 1012.04 1012.90 1014.04 1014.85 1015.81 1016.63 1017.34 1017.92 1018.45 1018.82 1019.04 1019.12 1019.04 1019.00 1018.73 1018.36 1018.09 1017.58 1016.90 1016.21 1015.47 1014.64 1013.81 1013.00 1012.16 1011.31 1010.45 1009.67 1008.96 1008.33 1007.79 1007.36 1006.82 1006.44 1006.04 1005.60
1011.25 1011.39 1012.19 1012.63 1013.09 1012.92 1012.50 1011.36 1011.07 1010.85 1010.87 1011.13 1011.33 1012.09 1013.22 1014.13 1015.13 1016.17 1017.04 1017.83 1018.35 1018.77 1019.10 1019.28 1019.26 1019.21 1018.85 1018.66 1018.34 1017.79 1017.09 1016.42 1015.80 1015.04 1014.23 1013.37 1012.45 1011.54 1010.63 1009.77 1008.88 1008.08 1007.29 1006.70 1006.24 1005.83 1005.51 1005.21 1004.87
1010.65 1010.73 1011.22 1011.85 1012.87 1013.37 1012.85 1011.49 1011.18 1011.33 1011.37 1011.63 1011.85 1012.63 1013.71 1014.67 1015.79 1016.68 1017.50 1018.13 1018.62 1019.18 1019.44 1019.53 1019.43 1019.13 1018.97 1018.75 1018.19 1017.52 1016.94 1016.29 1015.48 1014.62 1013.76 1012.90 1011.90 1011.06 1010.21 1009.31 1008.43 1007.49 1006.62 1005.85 1005.26 1004.75 1004.45 1004.26 1004.01
Wind_Speed
1 2 3 3 3 2 4 4 2 10 7 2 8 0 4 5 5 5 4 5 5 9 8 10 8 8 13 13 10 9 10 12 12 13 12 11 10 10 8 7 7 6 6 6 5 4 4 4 3
3 4 1 0 2 8 4 3 10 4 5 10 9 6 4 6 5 4 1 3 4 7 8 8 7 7 8 10 9 9 9 10 10 11 11 12 11 10 9 8 8 8 7 7 6 6 6 5 5
4 0 2 2 2 5 6 1 6 9 8 4 5 7 4 5 5 5 5 4 8 9 9 8 8 8 7 8 7 6 6 5 6 7 7 8 8 9 8 8 7 8 8 8 7 7 7 7 7
1 3 3 3 9 3 2 6 11 12 6 2 8 10 8 10 4 8 5 8 11 10 9 9 10 8 7 8 8 6 5 4 4 3 2 2 2 3 5 6 7 8 8 8 8 7 7 7 7
3 0 4 5 4 1 2 3 7 8 5 4 5 8 6 7 7 9 9 10 11 10 8 10 9 9 10 9 7 5 4 4 3 2 1 2 4 5 6 7 8 8 9 9 9 8 8 8 8
3 1 6 7 6 1 0 4 4 5 8 11 9 8 5 4 9 8 11 11 11 11 10 8 8 8 9 9 8 6 5 4 2 2 3 4 5 7 8 8 9 10 10 10 11 10 9 9 9
3 2 4 6 9 8 7 5 4 8 12 8 3 5 4 9 9 11 13 13 12 13 11 9 7 7 11 10 8 7 6 5 4 4 4 6 7 8 9 9 10 11 11 11 11 11 11 11 11
3 3 5 2 5 7 5 4 3 5 6 1 3 5 6 8 9 12 13 14 13 11 11 11 11 11 9 9 14 13 13 13 12 9 7 7 7 7 10 9 11 12 13 13 13 13 13 13 13
2 3 7 6 12 9 6 6 3 2 6 4 4 3 11 13 10 11 12 12 11 10 10 9 11 10 10 9 9 9 10 10 9 7 8 6 5 7 9 7 11 13 14 14 14 15 15 15 15
2 4 4 2 7 13 9 6 7 4 5 6 11 14 13 12 9 11 11 11 12 10 10 9 9 9 9 7 7 6 6 5 6 7 7 5 6 5 8 9 11 13 14 14 15 16 16 15 12
2 5 4 4 6 16 11 7 3 12 4 8 17 17 13 13 11 12 11 11 11 9 8 8 7 7 8 7 4 3 3 3 3 6 6 6 5 5 5 4 5 6 6 7 8 9 8 11 10
3 2 2 9 10 9 13 11 11 2 2 6 14 17 14 14 12 12 12 12 11 9 7 6 6 6 6 5 5 5 4 4 4 5 7 6 5 5 5 5 6 5 5 7 7 7 10 12 13
1 5 3 8 8 9 14 9 5 4 8 13 14 12 13 10 9 6 8 8 9 9 6 6 4 5 4 5 4 4 4 4 4 4 4 4 4 4 4 5 5 5 6 6 7 8 9 10 12
1 6 8 8 10 8 13 6 4 5 12 12 13 12 10 11 9 7 6 8 8 8 8 6 5 3 3 4 4 3 4 4 4 4 4 5 4 4 5 6 6 6 6 7 8 9 10 10 11
2 5 10 8 11 8 10 6 7 16 14 14 14 11 9 9 8 11 11 11 10 8 7 7 5 4 2 1 0 1 2 2 3 4 5 5 5 5 5 6 6 7 7 10 9 10 9 8 10
2 1 9 8 11 6 9 12 7 17 18 17 15 12 11 13 13 12 10 10 9 7 7 6 5 6 5 4 3 2 2 2 3 3 3 5 5 5 6 6 7 7 8 8 9 9 10 10 10
1 6 7 6 10 7 9 5 14 19 18 18 17 16 15 14 13 12 11 10 10 9 7 8 8 8 7 5 4 5 5 6 4 4 4 6 7 8 7 7 8 9 9 10 10 10 10 11 11
7 5 2 3 7 10 15 7 9 20 21 21 17 15 15 15 15 13 10 10 8 7 7 7 7 8 6 5 4 5 6 6 5 5 5 7 7 9 9 9 10 10 10 11 11 13 12 11 12
5 4 3 2 2 10 14 8 10 18 17 17 17 17 17 16 14 9 9 9 8 9 10 9 8 8 4 4 6 6 7 5 6 6 7 8 8 10 10 10 12 12 13 14 14 13 14 11 10
5 4 3 3 2 7 7 9 3 15 21 20 19 18 17 14 12 10 9 9 10 11 10 9 10 7 6 5 4 4 5 6 7 8 9 10 10 11 12 14 14 15 14 15 15 15 12 12 9
3 4 4 1 3 4 4 6 6 6 10 11 14 14 15 17 16 12 11 12 11 12 9 8 7 7 5 5 4 5 6 6 8 8 10 12 16 17 17 17 15 15 14 13 14 15 16 13 11
5 4 5 4 3 5 3 6 5 8 10 10 13 15 18 18 14 12 12 10 7 5 4 5 4 5 5 5 4 6 7 9 10 12 12 13 17 18 18 19 17 16 13 15 14 14 14 14 13
2 2 3 2 3 2 3 5 4 3 10 11 9 12 15 16 14 13 9 3 4 5 6 7 8 8 8 8 8 8 10 11 11 12 16 15 15 16 16 17 17 17 13 15 15 14 14 13 13
12 5 5 3 1 5 3 6 5 5 4 2 4 9 12 12 10 6 2 5 7 8 8 8 8 9 10 11 12 12 14 15 14 15 14 13 13 13 15 17 14 14 13 12 11 13 15 12 12
3 5 2 3 4 2 2 4 6 3 4 5 9 10 9 8 7 4 3 6 7 8 8 8 10 9 11 12 13 15 16 18 17 16 14 17 13 13 15 17 16 15 15 13 13 11 13 11 9
5 4 4 3 2 2 2 5 2 1 5 6 8 10 9 6 3 6 7 8 8 9 9 9 10 12 13 14 16 15 16 12 13 14 13 11 12 13 16 16 16 16 16 15 14 10 10 12 8
6 5 3 6 2 3 0 2 8 3 2 7 8 8 9 4 7 8 9 9 8 8 9 10 12 13 14 15 14 15 15 16 14 16 13 11 14 13 16 16 17 16 16 15 15 11 13 12 11
2 11 4 2 3 4 3 4 4 5 9 9 9 13 7 7 9 9 9 8 7 7 8 10 11 13 14 14 14 13 15 15 14 14 16 16 15 16 16 17 16 15 16 15 14 12 12 12 10
6 5 5 4 1 3 2 2 4 8 10 12 12 8 5 7 9 9 8 7 7 8 9 10 12 13 14 14 15 15 15 16 15 14 14 15 16 16 16 16 16 16 15 14 13 13 13 13 12
1 4 6 5 5 1 1 6 2 4 6 6 8 5 7 9 10 8 7 7 8 9 11 11 12 14 14 15 15 15 16 16 14 15 15 15 15 15 16 15 15 15 15 14 14 14 13 13 12
Wind_Direction
22 120 174 196 207 115 87 87 39 124 151 82 122 248 102 40 20 70 50 0 133 118 134 128 111 108 124 125 117 104 107 115 118 120 122 125 131 138 144 148 158 171 181 190 192 191 190 183 189
114 147 165 108 125 117 77 345 127 101 116 121 111 120 85 72 39 83 264 9 108 81 69 77 69 82 100 109 119 124 126 125 127 130 136 139 145 149 158 167 177 186 191 194 202 206 206 208 212
151 74 221 76 103 115 121 260 133 110 124 126 106 50 43 21 21 5 15 97 106 91 80 79 91 85 79 76 79 87 96 100 112 127 137 150 160 162 172 183 191 201 209 216 219 221 220 220 225
150 157 113 100 117 92 51 149 141 128 95 94 118 83 97 32 359 342 66 93 87 78 79 79 71 74 76 85 84 71 75 86 108 118 128 161 201 215 212 215 216 217 223 230 239 245 242 240 237
53 166 92 106 89 1 306 164 139 115 105 124 158 111 78 27 44 45 78 72 87 83 74 69 62 75 76 73 69 73 74 61 41 16 293 262 267 266 252 249 248 248 249 253 253 249 246 248 249
104 300 122 121 101 82 311 184 108 90 115 119 95 91 74 27 61 71 94 89 82 82 71 61 59 69 75 74 73 58 44 37 20 332 290 270 262 266 269 268 265 261 259 261 264 262 259 255 251
100 88 106 126 114 118 139 139 93 115 131 67 66 87 87 72 86 90 89 87 85 81 75 65 63 77 72 57 64 63 54 32 0 329 308 295 287 279 274 271 272 272 270 265 261 261 259 257 256
99 97 131 55 132 117 135 105 92 94 83 44 358 125 131 133 115 106 95 87 80 74 70 67 66 74 69 68 50 51 46 32 18 3 348 330 298 277 276 285 261 272 275 273 269 261 257 254 251
162 117 134 133 152 138 144 142 53 45 100 62 46 103 128 141 138 117 107 95 88 75 74 71 72 75 77 69 61 55 49 42 29 18 2 330 318 305 295 308 291 286 281 274 269 266 261 256 254
28 105 106 134 145 148 134 145 126 151 117 76 97 115 132 148 155 128 115 104 93 85 71 63 62 66 72 71 63 61 49 38 35 25 9 359 348 334 310 300 301 293 288 284 278 272 264 258 263
107 90 145 132 151 145 136 131 102 140 167 178 160 150 148 151 147 123 107 93 92 90 82 75 81 77 72 69 64 61 51 44 46 37 29 21 8 4 348 325 317 311 293 288 286 283 270 272 271
139 137 114 132 139 140 148 132 141 328 145 145 143 146 150 153 140 128 124 123 121 108 103 97 82 82 74 78 69 65 48 39 32 26 16 14 7 4 355 348 329 318 322 311 295 289 287 279 272
119 100 161 145 137 132 139 144 134 157 120 128 139 153 153 140 126 112 115 122 127 133 137 122 122 104 86 71 63 54 49 45 38 26 35 24 7 355 341 342 334 334 334 321 309 298 287 279 272
93 98 128 146 142 151 152 152 191 148 142 147 155 158 160 153 146 145 167 164 169 159 159 160 158 120 91 75 63 50 42 25 25 22 15 16 5 1 351 344 338 330 329 322 312 310 302 290 282
93 121 130 146 160 155 140 155 206 153 164 164 171 173 173 177 177 191 187 184 184 179 168 180 180 177 186 199 8 50 26 24 353 348 346 350 349 350 340 340 333 329 327 313 310 304 296 290 287
107 91 173 148 174 156 212 190 176 167 169 177 180 184 190 198 205 210 209 204 194 194 205 200 210 209 223 241 256 263 267 265 285 298 305 317 324 327 322 325 324 331 315 312 309 306 299 291 284
79 184 204 172 192 162 216 178 185 177 181 183 191 195 199 209 215 228 230 228 210 210 209 223 222 230 231 243 257 269 273 269 262 265 279 300 310 314 307 305 308 314 310 309 307 300 293 290 286
177 175 183 194 166 193 199 214 164 182 187 196 197 202 206 211 213 221 212 223 217 222 230 237 238 240 237 258 268 273 270 263 265 270 275 292 297 299 295 296 296 301 300 299 298 296 293 288 286
145 157 173 180 199 203 211 220 187 187 201 201 202 202 204 208 213 220 219 229 233 233 239 239 251 252 250 260 267 266 274 292 287 284 287 291 294 296 294 293 293 295 293 294 289 284 283 282 281
160 176 177 142 54 213 189 205 214 190 208 205 204 207 207 210 221 232 238 242 244 251 255 259 267 292 282 261 261 280 300 295 297 295 297 298 298 297 290 290 288 289 290 284 282 280 281 273 268
164 194 177 186 113 80 163 191 182 190 230 236 234 226 212 211 219 221 229 233 240 249 267 279 300 305 300 292 281 285 276 270 289 299 305 308 306 302 298 294 291 288 283 280 279 281 279 275 267
177 180 145 139 202 231 313 245 210 185 222 232 233 217 213 210 221 234 238 244 255 294 348 345 356 38 45 21 6 351 317 307 312 300 301 300 298 299 298 298 297 294 290 286 280 273 272 268 262
107 120 82 77 118 235 180 253 226 231 239 213 216 217 211 203 214 233 242 279 46 37 51 72 78 64 43 28 9 340 324 312 308 302 304 304 300 301 302 300 301 298 297 295 290 287 275 268 267
141 101 67 73 123 250 261 257 220 210 247 209 169 179 181 198 216 224 82 84 76 75 74 70 58 40 18 3 349 339 323 317 312 310 307 307 310 308 304 303 295 292 286 286 288 286 279 270 266
152 155 234 204 195 283 103 247 285 292 261 264 178 181 191 199 199 193 153 105 93 78 59 45 26 11 357 346 340 336 326 321 311 315 313 316 308 303 307 304 298 297 294 290 283 287 288 264 259
184 212 177 217 214 59 157 240 86 296 291 241 201 206 205 198 149 108 109 109 94 70 47 27 7 351 348 344 339 334 327 320 314 317 310 304 304 303 302 299 295 292 288 284 277 272 266 257 241
145 199 88 109 75 254 225 247 253 237 221 189 191 194 199 148 116 114 105 92 74 54 33 9 356 347 347 342 335 331 328 323 315 310 307 301 297 295 296 295 289 288 285 281 277 267 268 256 244
233 138 151 129 192 249 199 266 251 210 221 207 202 212 184 122 127 115 98 84 63 39 14 4 357 349 341 339 335 330 322 320 311 308 304 303 300 298 296 292 288 284 278 275 272 268 263 259 248
150 179 70 113 201 218 267 234 215 220 217 217 224 212 154 135 124 110 97 76 46 21 8 360 354 345 346 343 337 332 327 323 317 310 307 304 302 300 301 299 297 292 287 278 270 264 261 258 257
239 200 179 213 192 190 284 259 176 275 268 248 245 185 130 120 117 104 79 47 22 8 2 356 352 351 349 340 335 331 327 322 314 313 310 310 311 311 308 307 302 298 291 284 270 260 255 250 248